Flag for U.S.A. Weather past 2 weeks in Sandpoint, Idaho, U.S.A.

Now
28 °F

Ice fog.


Feels Like: 28 °F
Forecast: 28 / 39 °F
Wind: No wind

Location: Sandpoint Airport

Current Time: Jan 29, 2015 at 9:12:01 PM

Latest Report: Jan 29, 2015 at 8:35 PM


Visibility: 5 mi

Pressure: 30.39 "Hg

Humidity: 100%

Dew point: 28 °F

Location of SandpointLocation

Historic Weather in Sandpoint — Graph

°F

Sandpoint temperature yesterday

Maximum temperature yesterday: 37 °F (at 2:35 PM)
Minimum temperature yesterday: 32 °F (at 7:55 PM)
Average temperature yesterday: 34 °F

Past Weeks' High & Low Weather Summary

 TemperatureHumidityPressure
High46 °F (Jan 25, 1:15 PM)100% (Jan 14, 9:55 PM)30.52 "Hg (Jan 14, 9:55 PM)
Low12 °F (Jan 15, 4:35 AM)70% (Jan 18, 9:35 PM)29.79 "Hg (Jan 18, 4:55 AM)
Average33 °F96%30.24 "Hg
* Reported Jan 14 7:15 PM — Jan 29 7:55 PM, Sandpoint, Weather by CustomWeather, © 2014

Note: Actual official high and low records may vary slightly from our data, if they occured in-between our weather recording intervals... More about our weather records

Advertising

Sandpoint weather history for previous 24 hours

 ConditionsComfort  
Time TempWeatherWind HumidityBarometerVisibility
7:55 PM
Jan 29
28 °FClear.No wind100%30.39 "Hg7 mi
7:15 PM28 °FIce fog.No wind100%30.39 "Hg3 mi
6:55 PM30 °FIce fog.No wind100%30.39 "Hg5 mi
6:15 PM30 °FIce fog.No wind100%30.38 "Hg4 mi
5:55 PM30 °FIce fog.No wind100%30.38 "Hg4 mi
5:35 PM32 °FIce fog.No wind100%30.38 "Hg4 mi
5:15 PM32 °FClear.No wind100%30.38 "Hg7 mi
4:55 PM34 °FClear.No wind100%30.38 "Hg10 mi
4:35 PM34 °FSunny.No wind100%30.39 "Hg10 mi
4:15 PM36 °FSunny.No wind93%30.39 "Hg10 mi
3:55 PM37 °FSunny.No wind81%30.38 "Hg10 mi
3:35 PM36 °FSunny.No wind93%30.37 "Hg10 mi
3:15 PM36 °FSunny.No wind93%30.37 "Hg10 mi
2:55 PM37 °FSunny.No wind87%30.37 "Hg10 mi
2:35 PM36 °FSunny.No wind93%30.38 "Hg10 mi
2:15 PM36 °FSunny.No wind100%30.38 "Hg10 mi
1:55 PM36 °FSunny.No wind93%30.38 "Hg10 mi
1:15 PM34 °FLow clouds.No wind100%30.39 "Hg10 mi
12:55 PM34 °FLow clouds.No wind100%30.40 "Hg10 mi
12:15 PM32 °FLow clouds.No wind100%30.42 "Hg10 mi
11:55 AM32 °FLow clouds.No wind100%30.43 "Hg10 mi
11:35 AM32 °FLow clouds.No wind100%30.44 "Hg7 mi
11:15 AM32 °FLow clouds.No wind100%30.45 "Hg10 mi
10:55 AM32 °FLow clouds.No wind100%30.45 "Hg10 mi
10:35 AM32 °FIce fog.No wind100%30.46 "Hg5 mi
10:15 AM32 °FIce fog.No wind100%30.47 "Hg2 mi
9:55 AM32 °FIce fog.No wind100%30.47 "Hg2 mi
9:15 AM32 °FIce fog.No wind100%30.46 "Hg2 mi
8:55 AM32 °FIce fog.No wind100%30.47 "Hg4 mi
8:15 AM32 °FIce fog.No wind100%30.46 "Hg5 mi
7:55 AM32 °FLow clouds.No wind100%30.46 "Hg10 mi
7:35 AM32 °FLow clouds.No wind100%30.46 "Hg10 mi
7:15 AM32 °FLow clouds.No wind100%30.46 "Hg10 mi
6:55 AM32 °FLow clouds.No wind100%30.46 "Hg10 mi
6:15 AM32 °FIce fog.No wind100%30.46 "Hg1 mi
5:55 AM32 °FIce fog.5 mph100%30.45 "Hg1 mi
5:35 AM32 °FIce fog.5 mph100%30.46 "Hg1 mi
5:15 AM32 °FIce fog.5 mph100%30.47 "Hg1 mi
4:55 AM32 °FIce fog.6 mph100%30.47 "Hg2 mi
4:35 AM32 °FIce fog.6 mph100%30.47 "Hg2 mi
4:15 AM32 °FIce fog.5 mph100%30.47 "Hg2 mi
3:55 AM32 °FIce fog.No wind100%30.47 "Hg2 mi
3:35 AM32 °FLow clouds.No wind100%30.47 "Hg10 mi
3:15 AM32 °FLow clouds.No wind100%30.47 "Hg10 mi
2:55 AM32 °FLow clouds.3 mph100%30.47 "Hg10 mi
2:35 AM32 °FLow clouds.No wind100%30.47 "Hg10 mi
2:15 AM32 °FIce fog.No wind100%30.48 "Hg3 mi
1:55 AM32 °FIce fog.No wind100%30.47 "Hg1 mi
1:35 AM32 °FIce fog.3 mph100%30.47 "Hg1 mi
1:15 AM32 °FIce fog.5 mph100%30.47 "Hg0 mi
12:55 AM32 °FIce fog.5 mph100%30.47 "Hg0 mi
12:35 AM32 °FIce fog.6 mph100%30.47 "Hg0 mi
12:15 AM32 °FIce fog.6 mph100%30.47 "Hg0 mi
11:55 PM
Jan 28
32 °FIce fog.6 mph100%30.47 "Hg1 mi
11:35 PM32 °FIce fog.6 mph100%30.48 "Hg1 mi
11:15 PM32 °FIce fog.3 mph100%30.48 "Hg1 mi
10:55 PM32 °FFog.3 mph100%30.47 "Hg0 mi
10:35 PM32 °FFog.No wind100%30.47 "Hg0 mi
10:15 PM32 °FIce fog.No wind100%30.47 "Hg0 mi
9:55 PM32 °FIce fog.No wind100%30.46 "Hg1 mi
9:35 PM32 °FFog.No wind100%30.45 "Hg0 mi
9:15 PM32 °FLight snow. Low clouds.No wind100%30.45 "Hg0 mi
Weather by CustomWeather, © 2014

See weather overviewHow to use our weather pages